Location: B�di�
(14.6834°N, 3.1047°W)
Time: 18:44:08
(UTC+00:00)

Palapa 6 Rocket - Pass Details

Date: 24 January 2020
Orbit: 485 x 1218 km, 22.7° (Epoch: 27 February)

Event Time Altitude Azimuth Distance (km) Brightness Sun altitude
Rises 18:12:05 0° 289° (WNW) 3,537 7.9 -2.0°
Reaches altitude 10° 18:14:31 10° 290° (WNW) 2,697 7.2 -2.5°
Maximum altitude 18:21:18 85° 18° (NNE) 1,099 4.3 -4.1°
Drops below altitude 10° 18:29:11 10° 107° (ESE) 3,111 6.1 -5.9°
Sets 18:32:11 0° 108° (ESE) 4,108 6.8 -6.6°
